Flag for U.S.A. Weather past 2 weeks in Cincinnati, Ohio, U.S.A.

Now
71 °F

Overcast.


Feels Like: 65 °F
Forecast: 70 / 83 °F
Wind: No wind

Location: Cincinnati Municipal Airport Lunken Field

Current Time: Sep 1, 2014 at 3:47:23 AM

Latest Report: Sep 1, 2014 at 3:04 AM


Visibility: 10 mi

Pressure: 30.00 "Hg

Humidity: 96%

Dew point: 70 °F

Location of CincinnatiLocation

Historic Weather in Cincinnati — Graph

°F

Cincinnati temperature yesterday

Maximum temperature yesterday: 81 °F (at 5:53 PM)
Minimum temperature yesterday: 70 °F (at 1:53 AM)
Average temperature yesterday: 74 °F

Past Weeks' High & Low Weather Summary

 TemperatureHumidityPressure
High91 °F (Aug 23, 4:53 PM)100% (Aug 19, 1:53 AM)30.14 "Hg (Aug 19, 1:53 AM)
Low64 °F (Aug 29, 5:53 AM)48% (Aug 19, 3:53 PM)29.78 "Hg (Aug 18, 6:53 PM)
Average76 °F82%29.99 "Hg
* Reported Aug 17 2:53 AM — Sep 1 2:53 AM, Cincinnati, Weather by CustomWeather, © 2014

Note: Actual official high and low records may vary slightly from our data, if they occured in-between our weather recording intervals... More about our weather records

Advertising

Cincinnati weather history for previous 24 hours

 ConditionsComfort  
Time TempWeatherWind HumidityBarometerVisibility
2:53 AM
Sep 1
72 °FLow clouds.No wind93%29.99 "Hg10 mi
2:00 AM70 °FOvercast.No wind97%30.01 "Hg10 mi
12:53 AM69 °FClear.5 mph100%29.99 "Hg10 mi
11:53 PM
Aug 31
70 °FClear.3 mph97%29.98 "Hg10 mi
10:53 PM71 °FClear.3 mph93%29.99 "Hg10 mi
9:53 PM72 °FClear.5 mph91%29.99 "Hg10 mi
8:53 PM73 °FSunny.No wind90%29.98 "Hg10 mi
7:53 PM77 °FScattered clouds.6 mph79%29.97 "Hg10 mi
6:53 PM79 °FScattered clouds.6 mph74%29.97 "Hg10 mi
5:53 PM81 °FBroken clouds.7 mph69%29.97 "Hg10 mi
4:53 PM79 °FMostly cloudy.10 mph74%29.98 "Hg10 mi
3:53 PM80 °FScattered clouds.9 mph71%29.99 "Hg10 mi
2:53 PM79 °FPartly sunny.12 mph77%30.01 "Hg10 mi
1:53 PM79 °FPartly sunny.9 mph79%30.03 "Hg10 mi
12:53 PM79 °FMostly cloudy.12 mph77%30.03 "Hg10 mi
11:53 AM77 °FMostly cloudy.9 mph85%30.05 "Hg10 mi
11:01 AM75 °FMostly cloudy.12 mph90%30.06 "Hg10 mi
9:53 AM73 °FMostly cloudy.8 mph94%30.04 "Hg10 mi
8:53 AM73 °FMostly cloudy.7 mph94%30.03 "Hg10 mi
7:53 AM72 °FLight rain. Mostly cloudy.10 mph97%30.02 "Hg10 mi
6:59 AM72 °FRain. Fog.10 mph97%30.04 "Hg3 mi
5:53 AM71 °FLight rain. Fog.3 mph96%30.01 "Hg5 mi
4:53 AM70 °FFog.No wind100%30.00 "Hg2 mi
3:53 AM72 °FLight rain. Fog.No wind93%30.00 "Hg6 mi
Weather by CustomWeather, © 2014

See weather overviewHow to use our weather pages